Location: Écuvilly
(49.6505°N, 2.9206°E)
Time: 22:39:00
(UTC+00:00)

Cosmos 1812 - Visible Passes

Search period start: 15 February 2026 00:00
Search period end: 25 February 2026 00:00
Orbit: 275 x 278 km, 82.5° (Epoch: 14 February)

Date Brightness Start Highest point End Pass type
(mag) Time Alt. Az. Time Alt. Az. Time Alt. Az.
15 Feb 4.4 04:48:30 10° SE 04:50:19 19° E 04:52:09 10° NE visible
15 Feb 3.5 06:19:58 10° W 06:21:08 13° WNW 06:22:17 10° NW visible
16 Feb 3.7 04:51:38 27° E 04:51:38 27° E 04:53:43 10° NNE visible
17 Feb 3.9 04:53:37 20° NE 04:53:37 20° NE 04:54:37 10° NNE visible
18 Feb 4.4 04:54:38 12° NNE 04:54:38 12° NNE 04:54:52 10° NNE visible
